Weather Roundup
Issued by NWS Chicago, IL

Home | Current Version | Previous Version | Graphics & Text | Print | Product List | Glossary On
Versions: 1 2 3 4 5 6 7 8 9 10 11 12 13 14 15 16 17 18 19 20 21 22 23 24 25 26 27 28 29 30 31 32 33 34 35 36 37 38 39 40 41 42 43 44 45 46 47 48 49 50
000
NZUS59 KLOT 301908
HRRLOT

CHICAGO AREA WEATHER ROUNDUP
NATIONAL WEATHER SERVICE CHICAGO/ROMEOVILLE IL
200 PM CDT SAT JUL 30 2016

NOTE: "FAIR" INDICATES FEW OR NO CLOUDS BELOW 12,000 FEET WITH NO
SIGNIFICANT WEATHER AND/OR OBSTRUCTIONS TO VISIBILITY.

* THESE STATIONS ARE NOT UNDER NWS QUALITY CONTROL. THEY ALSO MAY NOT
  REPORT WEATHER SUCH AS PRECIPITATION OR FOG.

ILZ005-006-012>014-019>023-302000-
NORTHEAST ILLINOIS

CITY           SKY/WX    TMP DP  RH WIND       PRES   REMARKS
OHARE          PTSUNNY   75  65  70 NE12      29.98F
MIDWAY         PTSUNNY   78  65  63 NE12      29.97F HX  80
AURORA         MOSUNNY   78  67  68 NE14      29.99F HX  80
LANSING*       CLOUDY    75  66  74 N8        29.97F
JOLIET*        CLOUDY    78  69  73 NE12      29.97F
WAUKEGAN       CLOUDY    72  64  76 NE12      30.01S
DUPAGE AIRPORT PTSUNNY   75  64  68 NE12      29.99S
WHEELING       PTSUNNY   75  64  68 N9        30.01S
KANKAKEE*      MOSUNNY   78  67  69 CALM      29.96F HX  80
MORRIS*        CLOUDY    77  69  75 NE5       29.96S
LEWIS AIRPORT* PTSUNNY   77  65  66 NE8       29.98F
NORTHERLY ISL    N/A     74  66  76 N9          N/A
$$

WIZ051-052-058>065-066-070>072-302000-
SOUTHEAST WISCONSIN

CITY           SKY/WX    TMP DP  RH WIND       PRES   REMARKS
MILWAUKEE      PTSUNNY   75  63  66 NE14      30.03S
KENOSHA*       MOSUNNY   76  63  64 E10       30.02S
RACINE*        MOSUNNY   74  62  66 NE12      30.04S
BURLINGTON     SUNNY     77  58  52 NE7       30.02S
WAUKESHA       MOSUNNY   75  55  50 E12       30.04S
$$

INZ001>003-010>013-019-020-302000-
NORTHWEST INDIANA

CITY           SKY/WX    TMP DP  RH WIND       PRES   REMARKS
GARY*          PTSUNNY   77  72  83 NE9       29.98S
MICHIGAN CITY* NOT AVBL
RENSSELAER*    NOT AVBL
VALPARAISO     CLOUDY    75  68  78 NE6       29.97F
$$

LMZ740>746-302000-
SOUTHERN LAKE MICHIGAN

STATION/POSITION TIME  SKY/WX   TEMP WIND        PRES    VSBY
                                AIR  DIR/SP/G
                 (UTC)          (F)  (DEG/KT/KT) (MB)    (MI)
HARRISON CRIB    1800            72   60/ 10/ 10   N/A
BURNHAM HARBOR   1900            75   40/  8/ 10   N/A
CALUMET HARBOR   NOT AVBL
BURNS HARBOR     1809            71   40/  8/ 10 1015.6F
MICHIGAN CITY    1800            71  350/  7/  8   N/A
$$

ABBREVIATIONS USED IN REMARKS
   TC - TEMPERATURE IN CELSIUS
  WCI - WIND CHILL INDEX
   HX - HEAT INDEX
  VSB - VISIBILITY
$$




USA.gov is the U.S. government's official web portal to all federal, state and local government web resources and services.